Station PILM4 - Passage Island, MI Image indicating link to RSS feed of recent meteorological observations for station PILM4


Conditions at PILM4 as of
(4:00 am EDT)
0800 GMT on 06/15/2024:
     

Click on the graph icon in the table below to see a time series plot of the last five days of that observation.

5-day plot - Wind Direction Wind Direction (WDIR): E ( 100 deg true )
5-day plot - Wind Speed Wind Speed (WSPD):2.6 m/s
5-day plot - Wind Gust Wind Gust (GST):2.6 m/s
5-day plot - Atmospheric Pressure Atmospheric Pressure (PRES):1020.2 mb
5-day plot - Pressure Tendency Pressure Tendency (PTDY): -0.6 mb ( Falling )
5-day plot - Air Temperature Air Temperature (ATMP): 7.1 °C
5-day plot - Wind Chill Wind Chill (CHILL): 5.3 °C
5-day plot - Wind Speed at 10 Meters Wind Speed at 10 meters (WSPD10M): 3 m/s
5-day plot - Wind Speed at 20 Meters Wind Speed at 20 meters (WSPD20M): 3 m/s
5-day plot -  Wind Speed, Wind Gust and Atmospheric Pressure Combined plot of Wind Speed, Gust, and Air Pressure
Continuous Winds
TIME
(EDT)
5-day plot - Wind Direction WDIR 5-day plot - Wind Speed WSPD
4:00 amE ( 92 deg ) 2.6 m/s
3:50 amE ( 94 deg ) 2.1 m/s
3:40 amESE ( 120 deg ) 1.5 m/s
3:30 amSSE ( 159 deg ) 3.1 m/s
3:20 amSSE ( 154 deg ) 4.6 m/s
3:10 amSE ( 143 deg ) 4.6 m/s
 
Peak gust during the measurement hour
TIME
(EDT)
5-day plot - Gust Direction GDR 5-day plot - Gust Speed GST
3:14 amSSE ( 150 deg ) 4.6 m/s
Previous observations
TIME
(EDT)
5-day plot - Wind Direction
WDIR
 
5-day plot - Wind Speed
WSPD
m/s
5-day plot - Wind Gust
GST
m/s
5-day plot - Wave Height
WVHT
m
5-day plot - Dominant Wave Period
DPD
sec
5-day plot - Average Wave Period
APD
sec
5-day plot - Mean Wave Direction
MWD
 
5-day plot - Atmospheric Pressure
PRES
mb
5-day plot - Pressure Tendency
PTDY
mb
5-day plot - Air Temperature
ATMP
°C
5-day plot - Water Temperature
WTMP
°C
5-day plot - Dew Point
DEWP
°C
5-day plot - Salinity
SAL
psu
5-day plot - Visibility
VIS
km
5-day plot - Tide (above MLLW)
TIDE
m
2024-06-15 03:00 am SE 5 5----1020.5 +0.0 8.3-----
2024-06-15 02:00 am SE 2 2----1020.9 +0.0 9.2-----
2024-06-15 01:00 am S 3 3----1020.8 +0.5 9.4-----
2024-06-15 12:00 am SE 3 4----1020.7 -0.5 8.1-----
2024-06-14 11:00 pm S 5 5----1020.7 -0.5 8.7-----
2024-06-14 10:00 pm S 5 5----1020.3 -0.6 10.3-----
2024-06-14 09:00 pmWSW 4 4----1021.2 +0.0 10.9-----
2024-06-14 08:00 pm S 3 3----1021.2 +0.0 7.8-----
2024-06-14 07:00 pm S 5 6----1020.9 -0.6 8.6-----
2024-06-14 06:00 pmSSW 8 8----1021.2 -0.3 7.8-----
2024-06-14 05:00 pm S 6 6----1021.3 +0.0 7.3-----
2024-06-14 04:00 pmSSW 6 6----1021.5 -0.3 7.1-----
2024-06-14 03:00 pm S 5 5----1021.5 -0.3 7.2-----
2024-06-14 02:00 pmSSE 4 4----1021.5 +0.0 7.5-----
2024-06-14 01:00 pm SE 3 3----1021.8 +0.9 7.6-----
2024-06-14 12:00 pm E 3 3----1021.8 +1.4 7.2-----
2024-06-14 11:00 amENE 4 4----1021.3 +1.9 6.9-----
2024-06-14 10:00 am E 5 5----1020.9 +2.4 6.5-----
2024-06-14 09:00 amENE 6 6----1020.4 +2.9 7.0-----
2024-06-14 08:00 amENE 6 6----1019.4 +3.6 8.5-----
2024-06-14 07:00 amENE 5 5----1018.5 +3.7 8.4-----
2024-06-14 06:00 amENE 4 5----1017.5 +3.5 8.6-----
2024-06-14 05:00 am NE 6 9----1015.8 +2.3 11.2-----
2024-06-14 04:00 amNNW 4 4----1014.8 +1.7 10.6-----